Location: *
(42.5628°N, 2.3633°E)
Time: 20:21:22
(UTC+00:00)

Cosmos 1758 Rocket - Pass Details

Date: 30 March 2020
Orbit: 602 x 636 km, 82.5° (Epoch: 30 May)

Event Time Altitude Azimuth Distance (km) Brightness Sun altitude
Rises 19:41:07 0° 0° (N) 2,893 7.3 -16.2°
Reaches altitude 10° 19:43:32 10° 11° (N) 1,978 6.3 -16.6°
Maximum altitude 19:47:30 33° 76° (ENE) 1,033 4.3 -17.3°
Enters shadow 19:47:55 32° 88° (E) 1,048 4.2 -17.4°
